#timestamp,LO_Frequency,Hit,StdDev 
1605758415.2,286046997.1,N
1605758435.0,286046994.9,N
1605758435.9,286046994.9,N
1605758455.8,286046997.5,N
1605758475.6,286046997.0,N
1605758495.4,286046997.2,N
1605758515.3,286046996.7,N
1605758535.1,286046995.4,N
1605758555.9,286046997.4,N
1605758575.7,286046998.5,N
1605758595.5,286047002.6,N
1605758615.4,286046999.6,N
1605758635.2,286046997.1,N
1605758655.0,286046999.4,N
1605758655.9,286046999.4,N
1605758675.8,286047002.0,N
1605758695.6,286047000.8,N
1605758715.5,286046999.1,N
1605758735.3,286047001.2,N
1605758755.1,286047000.0,N
1605758775.9,286047001.3,N
1605758795.7,286047007.2,N
1605758815.5,286047007.1,N
1605758835.4,286047003.3,N
1605758855.2,286046998.2,N
1605758875.1,286046997.1,N
1605758876.0,286046997.1,N
1605758895.8,286047004.3,N
1605758915.6,286046999.7,N
1605758935.5,286047003.2,N
1605758955.3,286047003.2,N
1605758975.1,286047003.3,N
1605758995.9,286047000.5,N
1605759015.7,286046996.7,N
1605759035.6,286046999.5,N
1605759055.4,286047002.6,N
1605759075.2,286047002.2,N
1605759095.1,286047005.0,N
1605759096.0,286047005.0,N
1605759115.8,286047005.0,N
1605759135.6,286047005.3,N
1605759155.5,286047003.9,N
1605759175.3,286046998.6,N
1605759195.2,286047000.8,N
1605759215.9,286046996.9,N
1605759235.7,286046997.9,N
1605759255.6,286047002.3,N
1605759275.4,286047007.3,N
1605759295.2,286047010.8,Y
1605759315.1,286047007.0,P
1605759316.0,286047007.0,N
1605759335.8,286047008.0,P
1605759355.7,286047008.3,Y
1605759375.5,286046999.9,P
1605759395.3,286046996.7,N
1605759415.2,286046995.2,N
1605759435.0,286047000.9,N
1605759435.9,286047000.9,N
1605759455.8,286046999.9,N
1605759475.6,286046998.0,N
1605759495.4,286046997.9,N
1605759515.3,286046994.7,N
1605759535.1,286046996.1,N
1605759555.8,286046992.2,N
1605759575.7,286046992.7,N
1605759595.5,286046991.3,N
1605759615.4,286046994.3,N
1605759635.2,286046992.5,N
1605759655.0,286046997.4,N
1605759655.9,286046997.4,N
1605759675.8,286046994.9,N
1605759695.6,286047000.7,N
1605759715.4,286047001.0,N
1605759735.3,286046996.3,N
1605759755.1,286046999.3,N
1605759775.9,286046996.5,N
1605759795.7,286047000.0,N
1605759815.5,286047001.7,N
1605759835.4,286047002.3,N
1605759855.2,286046999.7,N
1605759875.0,286047000.5,N
1605759875.9,286047000.5,N
1605759895.8,286046998.7,N
1605759915.6,286046993.7,N
1605759935.5,286046998.1,N
1605759955.3,286046997.2,N
1605759975.1,286046997.9,N
1605759995.9,286046996.9,N
1605760015.7,286046998.6,N
1605760035.5,286046998.6,N
1605760055.4,286046999.2,N
1605760075.2,286046998.9,N
1605760095.1,286046993.9,N
1605760096.0,286046993.9,N
1605760115.8,286046993.9,N
1605760135.6,286046999.2,N
1605760155.5,286046998.7,N
1605760175.3,286047000.9,N
1605760195.1,286047001.4,N
1605760215.9,286047003.7,N
1605760235.7,286047000.7,N
1605760255.6,286047002.1,N
1605760275.4,286047002.8,N
1605760295.2,286047002.2,N
1605760315.1,286046998.5,N
1605760316.0,286046998.5,N
1605760335.8,286047004.2,N
1605760355.7,286046996.9,N
1605760375.5,286046998.1,N
1605760395.3,286047001.2,N
1605760415.2,286046995.8,N
1605760435.9,286046999.6,N
1605760455.7,286047000.1,N
1605760475.6,286046998.3,N
1605760495.4,286047001.5,N
1605760515.3,286047002.9,N
1605760535.1,286047005.7,N
1605760536.0,286047005.7,N
1605760555.8,286047003.0,N
1605760575.7,286046998.8,N
1605760595.5,286046998.1,N
1605760615.3,286046998.3,N
1605760635.2,286046996.7,N
1605760655.0,286046999.1,N
1605760655.9,286046999.1,N
1605760675.8,286046999.2,N
1605760695.6,286046997.8,N
1605760715.4,286046999.0,N
1605760735.3,286046998.7,N
1605760755.1,286046995.6,N
1605760775.8,286046993.4,N
1605760795.7,286046993.4,N
1605760815.5,286046994.1,N
1605760835.4,286046996.8,N
1605760855.2,286046997.2,N
1605760875.0,286046997.3,N
1605760875.9,286046997.3,N
1605760895.8,286046997.1,N
1605760915.6,286046996.6,N
1605760935.4,286046996.9,N
1605760955.3,286046999.6,N
1605760975.1,286046996.9,N
1605760995.9,286046997.7,N
1605761015.7,286046993.4,N
1605761035.5,286046991.6,N
1605761055.4,286046990.7,N
1605761075.2,286046992.7,N
1605761095.1,286046991.9,N
1605761096.0,286046991.9,N
1605761115.8,286046991.8,Y
1605761135.6,286046998.8,P
1605761155.5,286047001.8,N
1605761175.3,286047002.3,N
1605761195.1,286047004.1,N
1605761215.9,286047001.7,N
1605761235.7,286047001.0,N
1605761255.6,286046998.6,N
1605761275.4,286047001.6,N
1605761295.2,286047003.5,N
1605761315.1,286047005.2,N
1605761316.0,286047005.2,N
1605761335.8,286047000.4,N
1605761355.7,286046997.4,N
1605761375.5,286046994.7,N
1605761395.3,286046999.6,N
1605761415.2,286046994.0,N
1605761435.0,286046997.9,N
1605761435.9,286046997.9,N
1605761455.7,286046997.1,N
1605761475.6,286046998.9,N
1605761495.4,286047002.6,N
1605761515.3,286047002.5,N
1605761535.1,286046997.2,N
1605761536.0,286046997.2,N
1605761555.8,286046997.5,N
1605761575.7,286046995.8,N
1605761595.5,286046996.7,N
1605761615.3,286047000.1,N
1605761635.2,286047003.5,N
1605761655.0,286046999.7,N
1605761655.9,286046999.7,N
1605761675.8,286047001.9,N
1605761695.6,286047002.8,N
1605761715.4,286046999.2,N
1605761735.3,286047000.0,N
1605761755.1,286046998.6,N
1605761775.9,286047002.3,N
1605761795.7,286047002.8,N
1605761815.5,286047001.5,N
1605761835.4,286047002.2,N
1605761855.2,286046998.8,N
1605761875.0,286046995.4,N
1605761875.9,286046995.4,N
1605761895.8,286046994.1,N
1605761915.6,286046992.4,N
1605761935.4,286046993.3,N
1605761955.3,286046998.5,N
1605761975.1,286047001.4,N
1605761995.9,286047002.1,N
